Location: Duac?
(36.9744°N, 30.6500°E)
Time: 12:05:58
(UTC+00:00)

ATLAS 2AS CENTAUR R/B - Pass Details

Date: 05 August 2024
Orbit: 1023 x 1188 km, 63.7° (Epoch: 11 September)

Event Time Altitude Azimuth Distance (km) Brightness Sun altitude
Exits shadow 22:13:45 29° 78° (ENE) 1,968 4.1 -36.3°
Drops below altitude 10° 22:17:51 10° 49° (NE) 3,016 5.5 -36.3°
Sets 22:20:43 0° 41° (NE) 3,953 6.3 -36.2°
